Regional Weather Roundup
Issued by NWS

Home | Current Version | Previous Version | Graphics & Text | Print | Product List | Glossary On
Versions: 1 2 3 4 5 6 7 8 9 10 11 12 13 14 15 16 17 18 19 20 21 22 23 24 25 26 27 28 29 30 31 32 33 34 35 36 37 38 39 40 41 42 43 44 45 46 47 48 49 50
000
ASUS43 KDMX 090807
RWRIA

WEATHER ROUNDUP FOR IOWA
NATIONAL WEATHER SERVICE DES MOINES IA
300 AM CDT WED JUL 09 2014

NOTE: "FAIR" INDICATES FEW OR NO CLOUDS BELOW 12,000 FEET WITH NO
SIGNIFICANT WEATHER AND/OR OBSTRUCTIONS TO VISIBILITY.

* - THESE STATIONS ARE NOT NWS STATIONS...THUS NOT UNDER NWS
QUALITY CONTROL.  THEY ALSO DO NOT REPORT WEATHER SUCH
AS PRECIPITATION OR FOG.

IAZ001>003-012>014-020>022-031>034-043>046-090900-
   NORTHWEST IOWA

CITY           SKY/WX    TMP DP  RH WIND       PRES   REMARKS
CARROLL *      CLOUDY    59  55  88 NW6       30.00S
CHEROKEE *     CLEAR     57  57 100 CALM      30.01S
DENISON *      MOCLDY    59  57  94 NE3       30.00S
LE MARS *      CLEAR     57  55  94 CALM      30.02F
ORANGE CITY *  CLEAR     59  54  82 W5        30.02S
SHELDON *      CLOUDY    54  52  94 CALM      30.01S
SIOUX CITY     CLEAR     58  56  93 W5        30.02S
SPENCER        CLEAR     52  50  93 W6        30.01R
STORM LAKE *   CLEAR     57  55  94 NW7       30.02S
$$

IAZ055>058-069>071-079>083-090>094-090900-
   SOUTHWEST IOWA

CITY           SKY/WX    TMP DP  RH WIND       PRES   REMARKS
ATLANTIC *     PTCLDY    61  57  88 N5        30.01R
AUDUBON *      CLEAR     63  61  94 NW5       30.02S
CLARINDA *     CLEAR     63  59  88 CALM      30.02S
COUNCIL BLFS *   N/A     64  61  88 N5        30.02R
CRESTON *      CLEAR     61  59  94 NW7       30.01R
HARLAN  *      CLEAR     61  57  88 N5        30.05R
LAMONI         PTCLDY    64  59  83 W8        29.99R
RED OAK *      CLEAR     63  59  88 NE5       30.01S
SHENANDOAH *   CLEAR     63  59  88 CALM      30.02S
$$

IAZ047>049-059>061-072>074-084-090900-
   CENTRAL IOWA

CITY           SKY/WX    TMP DP  RH WIND       PRES   REMARKS
AMES           CLEAR     62  56  80 NW8       29.97R
ANKENY *       CLEAR     66  57  72 NW7       29.97R
CHARITON *     PTCLDY    63  59  88 W7        29.98R
DES MOINES     CLEAR     66  59  78 NW3       29.97R
GRINNELL*      CLEAR     61  57  88 NW5       29.96R
KNOXVILLE *    CLEAR     63  59  88 W7        29.96R
MARSHALLTOWN   CLEAR     59  56  89 NW8       29.95R
PELLA *        CLEAR     63  59  88 NW5       29.97R
PERRY *          N/A     61  59  94 NW5       29.99R
$$

IAZ004>006-015-016-023>025-035-036-090900-
   NORTH CENTRAL IOWA

CITY           SKY/WX    TMP DP  RH WIND       PRES   REMARKS
ALGONA *       CLEAR     55  52  88 NW6       29.99R
CLARION *      CLEAR     55  54  94 NW6       29.98R
ESTHERVILLE    CLEAR     54  49  83 NW7       29.99R
FORT DODGE *   CLEAR     57  52  82 CALM      29.99S
MASON CITY     CLEAR     56  51  84 NW8       29.97R
FOREST CITY *  CLEAR     57  50  77 NW7       29.97R
IOWA FALLS *     N/A     57  54  88 W5        29.97R
$$

IAZ007>011-017>019-026>030-037>042-050>054-066-090900-
   NORTHEAST IOWA

CITY           SKY/WX    TMP DP  RH WIND       PRES   REMARKS
CEDAR RAPIDS   CLEAR     58  55  90 W7        29.92R
CHARLES CITY * CLEAR     57  54  88 NW6       29.95R
CLINTON *      CLEAR     57  55  94 W3        29.93R
DECORAH *        N/A    N/A N/A N/A MISG        N/A
DUBUQUE        CLEAR     59  54  83 W8        29.91R
MONTICELLO *   CLEAR     57  55  94 CALM      29.91R
OELWEIN *      CLEAR     55  55 100 NW7       29.93S
WATERLOO       CLEAR     58  54  86 W6        29.93R
$$

IAZ064-065-067-068-078-090900-
   EAST CENTRAL IOWA

CITY           SKY/WX    TMP DP  RH WIND       PRES   REMARKS
DAVENPORT      CLEAR     59  56  89 W7        29.91S
IOWA CITY      CLEAR     62  59  90 NW5       29.93R
MT. PLEASANT * CLEAR     64  59  82 W5        29.94R
MUSCATINE *    CLEAR     63  61  94 W5        29.92R
QUAD CITIES    CLEAR     63  58  83 SW5       29.90R
$$

IAZ062-063-075>077-085>089-095>099-090900-
   SOUTHEAST IOWA

CITY           SKY/WX    TMP DP  RH WIND       PRES   REMARKS
BURLINGTON     PTCLDY    65  60  84 NW5       29.93R
FAIRFIELD *    CLEAR     63  59  88 W6        29.95R
FORT MADISON * CLEAR     66  63  88 W7        29.95R
KEOKUK *       CLEAR     64  61  88 W7        29.94R
OSKALOOSA *      N/A     61  59  94 W6        29.96R
CENTERVILLE *  PTCLDY    64  61  88 W6        29.99R
OTTUMWA        CLEAR     62  59  90 W7        29.95R
WASHINGTON *   PTCLDY    63  61  94 W7        29.94R
$$

ABBREVIATIONS USED IN REMARKS
   TC - TEMPERATURES IN CELSIUS
  WCI - WIND CHILL INDEX
   HX - HEAT INDEX
  VSB - VISIBILITY
$$



USA.gov is the U.S. government's official web portal to all federal, state and local government web resources and services.